Duluth, MN

5:42 PM CDT on September 19, 2017 (GMT -0500)
Duluth International

Weather History for KDLH - March, 2014

Change the Weather History Date:

Saturday, March 8, 2014

  Actual Average Record
Temperature  
Mean Temperature 19 °F 23 °F  
Max Temperature 26 °F 31 °F 56 °F (1977)
Min Temperature 12 °F 14 °F -17 °F (1884)
Degree Days  
Heating Degree Days 46 42  
Month to date heating degree days 477 349  
Since 1 July heating degree days 7918 7216  
Cooling Degree Days 0 0  
Month to date cooling degree days 0 0  
Year to date cooling degree days 0 0  
Moisture  
Dew Point 6 °F    
Average Humidity 58    
Maximum Humidity 76    
Minimum Humidity 40    
Precipitation  
Precipitation T in 0.05 in 1.76 in (2000)
Month to date precipitation 0.13 0.35  
Year to date precipitation 2.98 2.12  
Snow  
Snow T in 0.60 in 8.00 in (1891)
Month to date snowfall 1.5 4.4  
Since 1 July snowfall 85.3 70.0  
Snow Depth 28.00 in    
Sea Level Pressure  
Sea Level Pressure 30.25 in    
Wind  
Wind Speed 9 mph (WNW)    
Max Wind Speed 16 mph    
Max Gust Speed 23 mph    
Visibility 10 miles    
Events Snow    
T = Trace of Precipitation, MM = Missing Value Source: NWS Daily Summary

Daily Weather History Graph

Daily Weather History Graph

Search for Another Location

Airport or City:

Trip Planner

Search our weather history database for the weather conditions in past years. The results will help you decide how hot, cold, wet, or windy it might be!

Date:

Astronomy

Mar. 08, 2014 Rise Set
Actual Time 6:35 AM CST 6:04 PM CST
Civil Twilight 6:04 AM CST 6:34 PM CST
Nautical Twilight 5:29 AM CST 7:10 PM CST
Astronomical Twilight 4:54 AM CST 7:45 PM CST
Moon 10:53 AM CST (3/8) 1:26 AM CST (3/8)
Length of Visible Light 12h 29m
Length of Day
11h 29m
First Quarter, 52% of the Moon is Illuminated
Mar 8
First Quarter
Mar 16
Full
Mar 23
Last Quarter
Mar 30
New
Apr 7
First Quarter

Hourly Weather History & Observations

Time (CST) Temp. Windchill Dew Point Humidity Pressure Visibility Wind Dir Wind Speed Gust Speed Precip Events Conditions
12:55 AM 15.1 °F 4.2 °F 6.1 °F 68% 30.26 in 9.0 mi NNW 8.1 mph - 0.00 in Snow Light Snow
1:09 AM 14.0 °F 2.9 °F 6.1 °F 71% 30.18 in 9.0 mi North 8.1 mph - 0.00 in   Scattered Clouds
1:55 AM 12.9 °F 2.6 °F 5.0 °F 71% 30.28 in 10.0 mi NNW 6.9 mph - 0.00 in   Scattered Clouds
2:07 AM 14.0 °F 2.9 °F 6.1 °F 71% 30.19 in 10.0 mi North 8.1 mph - N/A   Mostly Cloudy
2:55 AM 12.9 °F 2.6 °F 6.1 °F 74% 30.29 in 10.0 mi NNW 6.9 mph - N/A   Overcast
3:55 AM 12.9 °F 5.2 °F 6.1 °F 74% 30.30 in 9.0 mi NNW 4.6 mph - 0.00 in Snow Light Snow
4:55 AM 12.9 °F 3.8 °F 5.0 °F 71% 30.30 in 9.0 mi North 5.8 mph - 0.00 in Snow Light Snow
5:55 AM 12.0 °F 4.1 °F 5.0 °F 73% 30.32 in 9.0 mi NNW 4.6 mph - 0.00 in Snow Light Snow
6:55 AM 12.0 °F 1.5 °F 3.9 °F 70% 30.32 in 9.0 mi North 6.9 mph - 0.00 in Snow Light Snow
7:55 AM 12.0 °F -0.4 °F 5.0 °F 73% 30.34 in 9.0 mi North 9.2 mph - 0.00 in Snow Light Snow
8:55 AM 12.9 °F 5.2 °F 5.0 °F 71% 30.35 in 9.0 mi North 4.6 mph - 0.00 in Snow Light Snow
9:51 AM 14.0 °F 5.1 °F 5.0 °F 67% 30.25 in 10.0 mi WNW 5.8 mph - 0.00 in   Scattered Clouds
9:55 AM 15.1 °F 6.4 °F 3.9 °F 61% 30.34 in 10.0 mi WNW 5.8 mph - 0.00 in   Partly Cloudy
10:55 AM 17.1 °F 8.7 °F 5.0 °F 59% 30.33 in 10.0 mi Variable 5.8 mph - N/A   Partly Cloudy
11:55 AM 19.9 °F 10.1 °F 5.0 °F 52% 30.32 in 10.0 mi NW 8.1 mph - N/A   Partly Cloudy
12:55 PM 21.9 °F 11.7 °F 5.0 °F 48% 30.29 in 10.0 mi West 9.2 mph - N/A   Clear
1:55 PM 24.1 °F 14.4 °F 3.9 °F 42% 30.25 in 10.0 mi WNW 9.2 mph - N/A   Clear
2:55 PM 25.0 °F 13.1 °F 5.0 °F 43% 30.24 in 10.0 mi WNW 13.8 mph - N/A   Clear
3:55 PM 25.0 °F 13.1 °F 6.1 °F 45% 30.23 in 10.0 mi West 13.8 mph - N/A   Clear
4:55 PM 24.1 °F 12.0 °F 5.0 °F 44% 30.22 in 10.0 mi West 13.8 mph - N/A   Clear
5:55 PM 23.0 °F 12.4 °F 6.1 °F 48% 30.21 in 10.0 mi WSW 10.4 mph - N/A   Clear
6:55 PM 21.0 °F 9.9 °F 6.1 °F 53% 30.20 in 10.0 mi WSW 10.4 mph - N/A   Clear
7:55 PM 19.0 °F 9.0 °F 5.0 °F 54% 30.19 in 10.0 mi WSW 8.1 mph - N/A   Clear
8:55 PM 19.0 °F 10.0 °F 5.0 °F 54% 30.18 in 10.0 mi SW 6.9 mph - N/A   Clear
9:55 PM 18.0 °F 6.9 °F 6.1 °F 60% 30.17 in 10.0 mi WSW 9.2 mph - N/A   Clear
10:55 PM 19.0 °F 6.8 °F 8.1 °F 62% 30.14 in 10.0 mi WSW 11.5 mph - N/A   Mostly Cloudy
11:55 PM 19.9 °F 8.6 °F 9.0 °F 62% 30.10 in 10.0 mi WSW 10.4 mph - N/A   Overcast